• In Belarus
  • List of Countries
  • For 7 days
  • Water Temperature
  • Satellite Maps
  • Weather Map
  • Weather Widgets
  • user-avatar
    Login

    Hourly Weather Kalat

    Today, 24 February, Saturday

    Time Temperature Precipitation Wind Pressure Humidity
    00:00 -12°C° 0.1 mm 3 mps 468 mmHg 82%
    01:00 -13°C° 0.1 mm 3 mps 468 mmHg 81%
    02:00 -13°C° 0.1 mm 3 mps 468 mmHg 81%
    03:00 -13°C° 0.1 mm 3 mps 468 mmHg 81%
    04:00 -13°C° 0.1 mm 3 mps 468 mmHg 81%
    05:00 -14°C° 0 mm 4 mps 468 mmHg 81%
    06:00 -14°C° 0 mm 4 mps 468 mmHg 81%
    07:00 -13°C° 0 mm 3 mps 468 mmHg 82%
    08:00 -13°C° 0 mm 3 mps 468 mmHg 82%
    09:00 -10°C° 0.1 mm 3 mps 470 mmHg 80%
    10:00 -8°C° 0.1 mm 3 mps 471 mmHg 78%
    11:00 -5°C° 0 mm 2 mps 472 mmHg 76%
    12:00 -6°C° 0.2 mm 3 mps 472 mmHg 77%
    13:00 -6°C° 0.2 mm 3 mps 472 mmHg 78%
    14:00 -6°C° 0.2 mm 3 mps 472 mmHg 79%
    15:00 -6°C° 0.3 mm 3 mps 472 mmHg 82%
    16:00 -7°C° 0.3 mm 3 mps 472 mmHg 84%
    17:00 -7°C° 0 mm 2 mps 471 mmHg 88%
    18:00 -7°C° 0.3 mm 2 mps 471 mmHg 88%
    19:00 -8°C° 0.3 mm 2 mps 471 mmHg 88%
    20:00 -9°C° 0.3 mm 2 mps 471 mmHg 88%
    21:00 -9°C° 0.2 mm 2 mps 471 mmHg 87%
    22:00 -10°C° 0.2 mm 2 mps 470 mmHg 87%
    23:00 -10°C° 0.2 mm 2 mps 470 mmHg 86%

    Tomorrow, 25 February, Sunday

    Time Temperature Precipitation Wind Pressure Humidity
    00:00 -12°C° 0.1 mm 2 mps 470 mmHg 85%
    01:00 -13°C° 0.1 mm 2 mps 469 mmHg 84%
    02:00 -14°C° 0.1 mm 2 mps 469 mmHg 83%
    03:00 -14°C° 0 mm 2 mps 469 mmHg 82%
    04:00 -15°C° 0 mm 2 mps 468 mmHg 81%
    05:00 -15°C° 0 mm 2 mps 468 mmHg 79%
    06:00 -15°C° 0 mm 3 mps 469 mmHg 77%
    07:00 -15°C° 0 mm 3 mps 469 mmHg 75%
    08:00 -14°C° 0 mm 3 mps 470 mmHg 72%
    09:00 -12°C° 0 mm 3 mps 472 mmHg 69%
    10:00 -7°C° 0 mm 2 mps 474 mmHg 66%
    11:00 -5°C° 0 mm 2 mps 476 mmHg 63%
    12:00 -4°C° 0 mm 2 mps 476 mmHg 65%
    13:00 -4°C° 0 mm 3 mps 476 mmHg 67%
    14:00 -4°C° 0 mm 3 mps 476 mmHg 69%
    15:00 -4°C° 0.1 mm 3 mps 475 mmHg 72%
    16:00 -5°C° 0.1 mm 3 mps 475 mmHg 75%
    17:00 -6°C° 0.1 mm 3 mps 474 mmHg 79%
    18:00 -7°C° 0.1 mm 3 mps 474 mmHg 80%
    19:00 -7°C° 0.1 mm 3 mps 473 mmHg 82%
    20:00 -8°C° 0.1 mm 3 mps 473 mmHg 83%
    21:00 -8°C° 0.5 mm 3 mps 473 mmHg 85%
    22:00 -8°C° 0.5 mm 3 mps 473 mmHg 86%
    23:00 -10°C° 0.5 mm 4 mps 473 mmHg 87%

    Day after tomorrow, 26 February, Monday

    Time Temperature Precipitation Wind Pressure Humidity
    00:00 -9°C° 0.3 mm 4 mps 473 mmHg 86%
    01:00 -9°C° 0.3 mm 4 mps 473 mmHg 85%
    02:00 -9°C° 0.3 mm 4 mps 473 mmHg 84%
    03:00 -9°C° 0.1 mm 4 mps 472 mmHg 84%
    04:00 -10°C° 0.1 mm 4 mps 472 mmHg 83%
    05:00 -10°C° 0.1 mm 4 mps 472 mmHg 82%
    06:00 -9°C° 0 mm 4 mps 472 mmHg 82%
    07:00 -9°C° 0 mm 4 mps 473 mmHg 82%
    08:00 -8°C° 0 mm 4 mps 473 mmHg 81%
    09:00 -7°C° 0.1 mm 4 mps 474 mmHg 83%
    10:00 -4°C° 0.1 mm 4 mps 475 mmHg 84%
    11:00 -3°C° 0.1 mm 4 mps 476 mmHg 85%
    12:00 -2°C° 0.1 mm 4 mps 476 mmHg 86%
    13:00 -2°C° 0.1 mm 4 mps 476 mmHg 86%
    14:00 -2°C° 0.1 mm 4 mps 476 mmHg 87%
    15:00 -2°C° 0.2 mm 4 mps 475 mmHg 86%
    16:00 -3°C° 0.2 mm 4 mps 475 mmHg 84%
    17:00 -3°C° 0.2 mm 4 mps 474 mmHg 83%
    18:00 -4°C° 0.2 mm 4 mps 474 mmHg 84%
    19:00 -5°C° 0.2 mm 4 mps 474 mmHg 84%
    20:00 -7°C° 0.2 mm 4 mps 473 mmHg 85%
    21:00 -7°C° 0.3 mm 4 mps 473 mmHg 85%
    22:00 -6°C° 0.3 mm 3 mps 473 mmHg 85%
    23:00 -6°C° 0.3 mm 3 mps 473 mmHg 85%

    27 February, Tuesday

    Time Temperature Precipitation Wind Pressure Humidity
    00:00 -6°C° 0.4 mm 3 mps 473 mmHg 86%
    01:00 -7°C° 0.4 mm 3 mps 473 mmHg 86%
    02:00 -7°C° 0.4 mm 3 mps 473 mmHg 87%
    03:00 -6°C° 0.4 mm 2 mps 473 mmHg 87%
    04:00 -7°C° 0.4 mm 2 mps 473 mmHg 88%
    05:00 -7°C° 0.4 mm 2 mps 472 mmHg 89%
    06:00 -7°C° 0.2 mm 2 mps 473 mmHg 89%
    07:00 -6°C° 0.2 mm 1 mps 473 mmHg 89%
    08:00 -6°C° 0.2 mm 1 mps 473 mmHg 89%
    09:00 -4°C° 0.2 mm 1 mps 474 mmHg 86%
    10:00 -3°C° 0.2 mm 1 mps 475 mmHg 84%
    11:00 -4°C° 0.2 mm 2 mps 475 mmHg 81%
    12:00 -3°C° 0.1 mm 2 mps 475 mmHg 82%
    13:00 -3°C° 0.1 mm 2 mps 475 mmHg 82%
    14:00 -4°C° 0.1 mm 3 mps 475 mmHg 83%
    15:00 -4°C° 0.2 mm 3 mps 475 mmHg 83%
    16:00 -4°C° 0.2 mm 3 mps 474 mmHg 84%
    17:00 -5°C° 0.2 mm 3 mps 474 mmHg 84%
    18:00 -5°C° 0.2 mm 2 mps 474 mmHg 86%
    19:00 -6°C° 0.2 mm 2 mps 473 mmHg 87%
    20:00 -7°C° 0.2 mm 2 mps 473 mmHg 88%
    21:00 -8°C° 0.1 mm 2 mps 472 mmHg 87%
    22:00 -8°C° 0.1 mm 2 mps 472 mmHg 86%
    23:00 -8°C° 0.1 mm 2 mps 472 mmHg 85%

    28 February, Wednesday

    Time Temperature Precipitation Wind Pressure Humidity
    00:00 -9°C° 0 mm 2 mps 471 mmHg 83%
    01:00 -10°C° 0 mm 2 mps 471 mmHg 82%
    02:00 -13°C° 0 mm 3 mps 470 mmHg 80%
    03:00 -13°C° 0 mm 3 mps 470 mmHg 79%
    04:00 -13°C° 0 mm 3 mps 469 mmHg 78%
    05:00 -12°C° 0 mm 2 mps 469 mmHg 77%
    06:00 -13°C° 0 mm 3 mps 470 mmHg 76%
    07:00 -12°C° 0 mm 3 mps 470 mmHg 76%
    08:00 -12°C° 0 mm 3 mps 471 mmHg 75%
    09:00 -9°C° 0 mm 3 mps 472 mmHg 74%
    10:00 -7°C° 0 mm 3 mps 474 mmHg 72%
    11:00 -5°C° 0 mm 3 mps 475 mmHg 71%
    12:00 -4°C° 0 mm 3 mps 475 mmHg 71%
    13:00 -4°C° 0 mm 3 mps 475 mmHg 71%
    14:00 -2°C° 0 mm 3 mps 475 mmHg 72%
    15:00 -4°C° 0.1 mm 3 mps 474 mmHg 73%
    16:00 -4°C° 0.1 mm 3 mps 473 mmHg 75%
    17:00 -4°C° 0.1 mm 2 mps 473 mmHg 77%
    18:00 -5°C° 0.1 mm 2 mps 472 mmHg 79%
    19:00 -6°C° 0.1 mm 2 mps 472 mmHg 80%
    20:00 -7°C° 0.1 mm 2 mps 471 mmHg 82%
    21:00 -7°C° 0.1 mm 2 mps 471 mmHg 82%
    22:00 -8°C° 0.1 mm 2 mps 471 mmHg 83%
    23:00 -8°C° 0.1 mm 2 mps 471 mmHg 83%

    1 March, Thursday

    Time Temperature Precipitation Wind Pressure Humidity
    00:00 -8°C° 0.2 mm 2 mps 471 mmHg 84%
    01:00 -8°C° 0.2 mm 2 mps 471 mmHg 85%
    02:00 -8°C° 0.2 mm 2 mps 471 mmHg 86%
    03:00 -8°C° 0.3 mm 2 mps 471 mmHg 86%
    04:00 -8°C° 0.3 mm 2 mps 470 mmHg 86%
    05:00 -8°C° 0.3 mm 2 mps 470 mmHg 87%
    06:00 -7°C° 0.2 mm 2 mps 471 mmHg 86%
    07:00 -7°C° 0.2 mm 2 mps 471 mmHg 86%
    08:00 -7°C° 0.2 mm 2 mps 471 mmHg 86%
    09:00 -6°C° 0.2 mm 2 mps 472 mmHg 83%
    10:00 -5°C° 0.2 mm 2 mps 473 mmHg 81%
    11:00 -4°C° 0.2 mm 2 mps 473 mmHg 79%
    12:00 -4°C° 0.3 mm 2 mps 473 mmHg 79%
    13:00 -3°C° 0.3 mm 2 mps 473 mmHg 80%
    14:00 -3°C° 0.3 mm 2 mps 473 mmHg 81%
    15:00 -4°C° 0.4 mm 2 mps 472 mmHg 83%
    16:00 -4°C° 0.4 mm 2 mps 472 mmHg 84%
    17:00 -4°C° 0.4 mm 2 mps 471 mmHg 86%
    18:00 -3°C° 0.2 mm 1 mps 471 mmHg 87%
    19:00 -4°C° 0.2 mm 1 mps 471 mmHg 87%
    20:00 -6°C° 0.2 mm 1 mps 470 mmHg 88%
    21:00 -6°C° 0.2 mm 1 mps 470 mmHg 87%
    22:00 -6°C° 0.2 mm 1 mps 470 mmHg 87%
    23:00 -6°C° 0.2 mm 1 mps 470 mmHg 86%
    Show more